Nassau, Bahamas

2:01 PM EDT on September 22, 2017 (GMT -0400)
Nassau International

Weather History for MYNN - February, 2013

Change the Weather History Date:

Tuesday, February 19, 2013

  Actual Average Record
Temperature  
Mean Temperature 70 °F -  
Max Temperature 78 °F 79 °F 87 °F (2008)
Min Temperature 63 °F 63 °F 57 °F (2015)
Cooling Degree Days 6    
Growing Degree Days 20 (Base 50)    
Moisture  
Dew Point 61 °F    
Average Humidity 69    
Maximum Humidity 88    
Minimum Humidity 51    
Precipitation  
Precipitation 0.00 in 0.05 in - ()
Sea Level Pressure  
Sea Level Pressure 30.18 in    
Wind  
Wind Speed 6 mph ()    
Max Wind Speed 14 mph    
Max Gust Speed -    
Visibility 7.1 miles    
Events      
Averages and records for this station are not official NWS values.
T = Trace of Precipitation, MM = Missing Value Source: Averaged Metar Reports

Daily Weather History Graph

Daily Weather History Graph

Search for Another Location

Airport or City:

Trip Planner

Search our weather history database for the weather conditions in past years. The results will help you decide how hot, cold, wet, or windy it might be!

Date:

Astronomy

Feb. 19, 2013 Rise Set
Actual Time 6:41 AM EST 6:06 PM EST
Civil Twilight 6:17 AM EST 6:29 PM EST
Nautical Twilight 5:51 AM EST 6:56 PM EST
Astronomical Twilight 5:24 AM EST 7:23 PM EST
Moon 12:54 PM EST (2/19) 1:53 AM EST (2/19)
Length of Visible Light 12h 12m
Length of Day
11h 25m
Waxing Gibbous, 67% of the Moon is Illuminated
Feb 19
Waxing Gibbous
Feb 25
Full
Mar 4
Last Quarter
Mar 11
New
Mar 19
First Quarter

Hourly Weather History & Observations

Time (EST) Temp. Dew Point Humidity Pressure Visibility Wind Dir Wind Speed Gust Speed Precip Events Conditions
12:00 AM 66.2 °F 53.6 °F 64% 30.22 in - East 4.6 mph - N/A   Clear
1:00 AM 67 °F 56 °F 58% 30.21 in 9 mi East 5.8 mph - -  
1:00 AM 66.2 °F 55.4 °F 68% 30.21 in - East 5.8 mph - N/A   Clear
2:00 AM 66.2 °F 57.2 °F 73% 30.19 in - NE 3.5 mph - N/A   Clear
3:00 AM 66.2 °F 57.2 °F 73% 30.18 in - ENE 5.8 mph - N/A   Clear
4:00 AM 66 °F 55 °F 59% 30.17 in 9 mi ENE 5.8 mph - -  
4:00 AM 66.2 °F 55.4 °F 68% 30.17 in - ENE 4.6 mph - N/A   Clear
5:00 AM 66.2 °F 59.0 °F 78% 30.17 in 6.2 mi ESE 4.6 mph - N/A   Partly Cloudy
6:00 AM 66.2 °F 57.2 °F 73% 30.17 in 6.2 mi ENE 3.5 mph - N/A   Partly Cloudy
7:00 AM 66 °F 59 °F 71% 30.19 in 9 mi ENE 3.5 mph - -   Scattered Clouds
7:00 AM 66.2 °F 59.0 °F 78% 30.19 in 6.2 mi ENE 3.5 mph - N/A   Partly Cloudy
9:00 AM 71.6 °F 60.8 °F 69% 30.22 in 6.2 mi East 12.7 mph - N/A   Partly Cloudy
10:00 AM 75 °F 62 °F 54% 30.22 in 9 mi East 11.5 mph - -   Scattered Clouds
10:00 AM 75.2 °F 62.6 °F 65% 30.22 in 6.2 mi East 11.5 mph - N/A   Partly Cloudy
11:00 AM 75.2 °F 62.6 °F 65% 30.22 in 6.2 mi SE 11.5 mph - N/A   Partly Cloudy
12:00 PM 75.2 °F 62.6 °F 65% 30.20 in 6.2 mi East 11.5 mph - N/A   Scattered Clouds
1:00 PM 78 °F 63 °F 51% 30.17 in 9 mi East 11.5 mph - -   Partly Cloudy
1:00 PM 78.8 °F 62.6 °F 57% 30.17 in 6.2 mi East 11.5 mph - N/A   Scattered Clouds
2:00 PM 75.2 °F 64.4 °F 69% 30.15 in 6.2 mi ESE 10.4 mph - N/A   Scattered Clouds
3:00 PM 75.2 °F 64.4 °F 69% 30.14 in 6.2 mi SE 13.8 mph - N/A   Scattered Clouds
4:00 PM 78 °F 63 °F 51% 30.14 in 9 mi ESE 11.5 mph - -   Partly Cloudy
4:00 PM 77.0 °F 62.6 °F 61% 30.13 in 6.2 mi ESE 11.5 mph - N/A   Scattered Clouds
6:00 PM 73.4 °F 64.4 °F 73% 30.15 in 6.2 mi East 4.6 mph - N/A   Scattered Clouds
8:00 PM 71.6 °F 64.4 °F 78% 30.16 in 6.2 mi Calm Calm - N/A   Partly Cloudy
9:00 PM 69.8 °F 64.4 °F 83% 30.16 in - East 3.5 mph - N/A   Partly Cloudy
10:00 PM 70 °F 67 °F 88% 30.16 in 9 mi East 3.5 mph - -   Scattered Clouds
10:00 PM 69.8 °F 64.4 °F 83% 30.16 in 6.2 mi East 3.5 mph - N/A   Partly Cloudy
11:00 PM 69.8 °F 64.4 °F 83% 30.15 in 6.2 mi East 3.5 mph - N/A   Partly Cloudy